Archiv-/Tagesdaten

--Timestamp---	Temp	Chill	HIndex	Humid	Dewpt	Wind	HiWind	WindDir	Rain	Barom	        Solar	ET	UV
--------------	----	-----	------	-----	-----	----	------	-------	----	-----	        -----	--	--
20080827 00:05	14.2	14.2	14.2	87	12.0	0	0	22	0.00	1022.252	0	0.000	0
20080827 00:10	14.2	14.2	14.2	87	12.0	0	0	22	0.00	1022.252	0	0.000	0
20080827 00:15	14.2	14.2	14.2	87	12.1	0	0	22	0.00	1022.218	0	0.000	0
20080827 00:20	14.2	14.2	14.2	87	12.1	0	0	22	0.00	1022.218	0	0.000	0
20080827 00:25	14.2	14.2	14.2	87	12.1	0	0	22	0.00	1022.252	0	0.000	0
20080827 00:30	14.2	14.2	14.2	87	12.1	0	0	22	0.00	1022.252	0	0.000	0
20080827 00:35	14.2	14.2	14.2	87	12.0	0	0	22	0.00	1022.218	0	0.000	0
20080827 00:40	14.2	14.2	14.2	88	12.2	0	0	22	0.00	1022.218	0	0.000	0
20080827 00:45	14.2	14.2	14.2	88	12.2	0	0	22	0.00	1022.252	0	0.000	0
20080827 00:50	14.1	14.1	14.1	88	12.2	0	0	22	0.00	1022.286	0	0.000	0
20080827 00:55	14.1	14.1	14.1	88	12.1	0	0	22	0.00	1022.286	0	0.000	0
20080827 01:00	14.0	14.0	14.0	88	12.0	0	0	22	0.00	1022.286	0	0.000	0
20080827 01:05	14.0	14.0	14.0	88	12.0	0	0	22	0.00	1022.184	0	0.000	0
20080827 01:10	13.9	13.9	13.9	88	12.0	0	0	22	0.00	1022.252	0	0.000	0
20080827 01:15	13.9	13.9	13.9	88	12.0	0	0	22	0.00	1022.252	0	0.000	0
20080827 01:20	13.9	13.9	13.9	89	12.1	0	0	22	0.00	1022.252	0	0.000	0
20080827 01:25	13.9	13.9	13.9	89	12.2	0	0	22	0.00	1022.218	0	0.000	0
20080827 01:30	13.9	13.9	13.9	89	12.2	0	0	22	0.00	1022.286	0	0.000	0
20080827 01:35	13.9	13.9	13.9	89	12.2	0	0	22	0.00	1022.252	0	0.000	0
20080827 01:40	13.9	13.9	13.9	89	12.1	0	0	22	0.00	1022.218	0	0.000	0
20080827 01:45	13.8	13.8	13.8	89	12.0	0	0	22	0.00	1022.184	0	0.000	0
20080827 01:50	13.8	13.8	13.8	89	12.0	0	0	22	0.00	1022.184	0	0.000	0
20080827 01:55	13.7	13.7	13.7	89	11.9	0	0	22	0.00	1022.150	0	0.000	0
20080827 02:00	13.7	13.7	13.7	89	11.9	0	0	22	0.00	1022.150	0	0.000	0
20080827 02:05	13.7	13.7	13.7	89	11.9	0	0	22	0.00	1022.083	0	0.000	0
20080827 02:10	13.7	13.7	13.7	90	12.1	0	0	22	0.00	1022.015	0	0.000	0
20080827 02:15	13.7	13.7	13.7	90	12.1	0	2	22	0.00	1022.015	0	0.000	0
20080827 02:20	13.7	13.7	13.7	90	12.1	0	0	22	0.00	1021.981	0	0.000	0
20080827 02:25	13.7	13.7	13.7	90	12.1	0	0	22	0.00	1021.981	0	0.000	0
20080827 02:30	13.7	13.7	13.7	90	12.1	0	0	22	0.00	1021.880	0	0.000	0
20080827 02:35	13.6	13.6	13.6	90	12.0	0	0	22	0.00	1021.880	0	0.000	0
20080827 02:40	13.6	13.6	13.6	90	12.0	0	0	22	0.00	1021.913	0	0.000	0
20080827 02:45	13.6	13.6	13.6	90	12.0	0	0	22	0.00	1021.846	0	0.000	0
20080827 02:50	13.7	13.7	13.7	90	12.1	0	0	22	0.00	1021.846	0	0.000	0
20080827 02:55	13.7	13.7	13.7	90	12.1	0	0	22	0.00	1021.778	0	0.000	0
20080827 03:00	13.7	13.7	13.7	90	12.1	0	0	22	0.00	1021.778	0	0.000	0
20080827 03:05	13.6	13.6	13.6	90	12.0	0	0	22	0.00	1021.643	0	0.000	0
20080827 03:10	13.6	13.6	13.6	90	11.9	0	0	22	0.00	1021.744	0	0.000	0
20080827 03:15	13.6	13.6	13.6	90	11.9	0	0	22	0.00	1021.744	0	0.000	0
20080827 03:20	13.6	13.6	13.6	90	11.9	0	0	22	0.00	1021.744	0	0.000	0
20080827 03:25	13.5	13.5	13.5	90	11.9	0	0	22	0.00	1021.710	0	0.000	0
20080827 03:30	13.4	13.4	13.4	90	11.8	0	0	22	0.00	1021.609	0	0.000	0
20080827 03:35	13.4	13.4	13.4	90	11.8	0	0	22	0.00	1021.541	0	0.000	0
20080827 03:40	13.3	13.3	13.3	90	11.7	0	0	22	0.00	1021.507	0	0.000	0
20080827 03:45	13.3	13.3	13.3	91	11.9	0	2	22	0.00	1021.507	0	0.000	0
20080827 03:50	13.3	13.3	13.3	91	11.9	0	2	22	0.00	1021.507	0	0.000	0
20080827 03:55	13.3	13.3	13.3	91	11.9	0	0	22	0.00	1021.541	0	0.000	0
20080827 04:00	13.3	13.3	13.3	91	11.8	0	0	22	0.00	1021.507	0	0.000	0
20080827 04:05	13.2	13.2	13.2	91	11.8	0	2	22	0.00	1021.473	0	0.000	0
20080827 04:10	13.2	13.2	13.2	91	11.8	0	2	22	0.00	1021.473	0	0.000	0
20080827 04:15	13.2	13.2	13.2	91	11.7	0	3	22	0.00	1021.473	0	0.000	0
20080827 04:20	13.2	13.2	13.2	91	11.7	0	2	22	0.00	1021.473	0	0.000	0
20080827 04:25	13.1	13.1	13.1	91	11.7	0	2	22	0.00	1021.473	0	0.000	0
20080827 04:30	13.1	13.1	13.1	91	11.7	0	2	22	0.00	1021.439	0	0.000	0
20080827 04:35	13.1	13.1	13.1	91	11.6	0	0	22	0.00	1021.405	0	0.000	0
20080827 04:40	13.0	13.0	13.0	91	11.6	0	0	22	0.00	1021.473	0	0.000	0
20080827 04:45	12.9	12.9	12.9	91	11.5	0	0	22	0.00	1021.541	0	0.000	0
20080827 04:50	12.9	12.9	12.9	91	11.5	0	0	22	0.00	1021.473	0	0.000	0
20080827 04:55	12.9	12.9	12.9	91	11.5	0	0	22	0.00	1021.473	0	0.000	0
20080827 05:00	12.8	12.8	12.8	91	11.4	0	0	22	0.00	1021.473	0	0.000	0
20080827 05:05	12.8	12.8	12.8	91	11.3	0	0	22	0.00	1021.439	0	0.000	0
20080827 05:10	12.7	12.7	12.7	91	11.3	0	0	22	0.00	1021.507	0	0.000	0
20080827 05:15	12.7	12.7	12.7	91	11.3	0	0	22	0.00	1021.507	0	0.000	0
20080827 05:20	12.7	12.7	12.7	91	11.2	0	2	22	0.00	1021.473	0	0.000	0
20080827 05:25	12.6	12.6	12.6	91	11.2	0	0	22	0.00	1021.405	0	0.000	0
20080827 05:30	12.5	12.5	12.5	91	11.1	0	0	22	0.00	1021.372	0	0.000	0
20080827 05:35	12.5	12.5	12.5	91	11.1	0	0	22	0.00	1021.372	0	0.000	0
20080827 05:40	12.5	12.5	12.5	92	11.2	0	0	22	0.00	1021.372	0	0.000	0
20080827 05:45	12.5	12.5	12.5	92	11.2	0	0	22	0.00	1021.372	0	0.000	0
20080827 05:50	12.4	12.4	12.4	92	11.2	0	2	22	0.00	1021.473	0	0.000	0
20080827 05:55	12.4	12.4	12.4	92	11.2	0	2	22	0.00	1021.473	0	0.000	0
20080827 06:00	12.4	12.4	12.4	92	11.1	2	5	22	0.00	1021.439	0	0.000	0
20080827 06:05	12.4	12.4	12.4	92	11.1	0	5	22	0.00	1021.575	0	0.000	0
20080827 06:10	12.4	12.4	12.4	92	11.1	0	3	22	0.00	1021.575	0	0.000	0
20080827 06:15	12.3	12.3	12.3	92	11.1	0	3	22	0.00	1021.575	0	0.000	0
20080827 06:20	12.3	12.3	12.3	92	11.0	0	3	22	0.00	1021.609	0	0.000	0
20080827 06:25	12.3	12.3	12.3	92	11.0	2	5	22	0.00	1021.609	0	0.000	0
20080827 06:30	12.3	12.3	12.3	92	11.0	2	5	135	0.00	1021.609	1	0.000	0
20080827 06:35	12.3	12.3	12.3	92	11.0	2	5	135	0.00	1021.575	6	0.000	0
20080827 06:40	12.3	12.3	12.3	92	11.0	0	2	135	0.00	1021.541	9	0.000	0
20080827 06:45	12.2	12.2	12.2	92	11.0	2	3	135	0.00	1021.541	13	0.000	0
20080827 06:50	12.3	12.3	12.3	92	11.0	0	2	135	0.00	1021.541	17	0.000	0
20080827 06:55	12.3	12.3	12.3	92	11.0	0	3	135	0.00	1021.643	21	0.000	0
20080827 07:00	12.3	12.3	12.3	92	11.0	0	3	135	0.00	1021.676	25	0.000	0
20080827 07:05	12.3	12.3	12.3	92	11.1	0	2	135	0.00	1021.676	29	0.000	0
20080827 07:10	12.4	12.4	12.4	92	11.1	0	0	135	0.00	1021.710	33	0.000	0
20080827 07:15	12.4	12.4	12.4	92	11.2	0	2	135	0.00	1021.744	38	0.000	0
20080827 07:20	12.4	12.4	12.4	91	11.0	0	2	135	0.00	1021.744	40	0.000	0
20080827 07:25	12.5	12.5	12.5	91	11.1	0	5	135	0.00	1021.710	41	0.000	0
20080827 07:30	12.6	12.6	12.6	91	11.1	0	2	135	0.00	1021.710	39	0.000	0
20080827 07:35	12.6	12.6	12.6	91	11.2	0	2	135	0.00	1021.710	42	0.000	0
20080827 07:40	12.7	12.7	12.7	91	11.2	0	2	135	0.00	1021.778	47	0.000	0
20080827 07:45	12.7	12.7	12.7	91	11.3	0	0	135	0.00	1021.778	49	0.000	0
20080827 07:50	12.8	12.8	12.8	91	11.4	0	2	135	0.00	1021.710	82	0.000	0
20080827 07:55	12.9	12.9	12.9	91	11.5	0	0	135	0.00	1021.744	107	0.000	0
20080827 08:00	13.1	13.1	13.1	91	11.7	0	2	135	0.00	1021.609	118	0.020	0
20080827 08:05	13.3	13.3	13.3	90	11.7	0	2	135	0.00	1021.846	133	0.000	0
20080827 08:10	13.6	13.6	13.6	89	11.8	0	3	135	0.00	1021.812	156	0.000	0
20080827 08:15	13.8	13.8	13.8	89	12.0	0	2	135	0.00	1021.812	173	0.000	1
20080827 08:20	14.2	14.2	14.2	89	12.4	0	2	135	0.00	1021.778	191	0.000	1
20080827 08:25	14.6	14.6	14.6	87	12.5	0	2	135	0.00	1021.710	208	0.000	1
20080827 08:30	15.0	15.0	15.0	86	12.7	0	2	135	0.00	1021.710	224	0.000	1
20080827 08:35	15.3	15.3	15.3	83	12.4	0	2	135	0.00	1021.744	240	0.000	1
20080827 08:40	15.4	15.4	15.4	83	12.5	0	2	135	0.00	1021.575	253	0.000	1
20080827 08:45	15.7	15.7	15.7	82	12.6	0	2	135	0.00	1021.643	268	0.000	1
20080827 08:50	15.8	15.8	15.8	82	12.7	2	5	135	0.00	1021.676	282	0.000	1
20080827 08:55	15.9	15.9	15.9	81	12.7	0	2	135	0.00	1021.575	296	0.000	1
20080827 09:00	15.9	15.9	15.9	81	12.6	2	5	135	0.00	1021.575	311	0.100	1
20080827 09:05	15.9	15.9	15.9	81	12.6	0	3	135	0.00	1021.710	233	0.000	1
20080827 09:10	15.9	15.9	15.9	82	12.8	0	2	135	0.00	1021.710	83	0.000	1
20080827 09:15	16.0	16.0	16.0	82	12.9	0	3	135	0.00	1021.812	84	0.000	1
20080827 09:20	16.1	16.1	16.1	83	13.2	0	2	135	0.00	1021.812	86	0.000	1
20080827 09:25	16.2	16.2	16.2	79	12.5	0	5	135	0.00	1021.812	88	0.000	2
20080827 09:30	16.2	16.2	16.2	80	12.8	0	2	135	0.00	1021.778	88	0.000	2
20080827 09:35	16.3	16.3	16.3	82	13.2	0	2	135	0.00	1021.778	90	0.000	2
20080827 09:40	16.4	16.4	16.4	82	13.3	0	2	135	0.00	1021.778	91	0.000	2
20080827 09:45	16.5	16.5	16.5	82	13.4	0	3	135	0.00	1021.676	91	0.000	2
20080827 09:50	16.6	16.6	16.6	82	13.5	0	2	135	0.00	1021.676	91	0.000	2
20080827 09:55	16.8	16.8	16.8	81	13.5	0	2	135	0.00	1021.744	93	0.000	2
20080827 10:00	16.9	16.9	16.9	79	13.3	0	5	135	0.00	1021.744	95	0.040	2
20080827 10:05	17.2	17.2	17.2	78	13.3	2	5	135	0.00	1021.846	97	0.000	2
20080827 10:10	17.3	17.3	17.3	76	13.1	2	5	135	0.00	1021.846	98	0.000	2
20080827 10:15	17.5	17.5	17.5	77	13.4	2	5	135	0.00	1021.744	99	0.000	2
20080827 10:20	17.7	17.7	17.7	76	13.4	2	5	337	0.00	1021.744	100	0.000	2
20080827 10:25	17.9	17.9	17.9	74	13.2	0	5	315	0.00	1021.778	101	0.000	2
20080827 10:30	18.0	18.0	18.0	73	13.1	2	5	315	0.00	1021.744	104	0.000	3
20080827 10:35	18.1	18.1	18.1	74	13.4	2	3	22	0.00	1021.812	106	0.000	3
20080827 10:40	18.2	18.2	18.2	72	13.1	0	5	22	0.00	1021.812	112	0.000	3
20080827 10:45	18.4	18.4	18.4	73	13.5	0	3	315	0.00	1021.744	111	0.000	3
20080827 10:50	18.6	18.6	18.6	71	13.2	2	5	0	0.00	1021.710	571	0.000	4
20080827 10:55	18.8	18.8	18.8	71	13.4	0	3	337	0.00	1021.541	580	0.000	4
20080827 11:00	18.9	18.9	18.9	70	13.3	3	8	0	0.00	1021.575	590	0.100	4
20080827 11:05	19.1	19.1	19.1	70	13.5	3	6	22	0.00	1021.676	602	0.000	4
20080827 11:10	19.3	19.3	19.3	71	13.9	0	5	22	0.00	1021.643	612	0.000	5
20080827 11:15	19.7	19.7	19.7	69	13.9	0	2	22	0.00	1021.609	624	0.000	5
20080827 11:20	20.1	20.1	20.1	67	13.7	2	6	22	0.00	1021.507	631	0.000	5
20080827 11:25	20.3	20.3	20.3	63	13.1	2	6	22	0.00	1021.507	642	0.000	5
20080827 11:30	20.5	20.5	20.5	65	13.7	3	8	45	0.00	1021.473	649	0.000	5
20080827 11:35	20.7	20.7	20.7	64	13.7	2	5	337	0.00	1021.439	653	0.000	5
20080827 11:40	20.8	20.8	20.8	61	13.0	3	8	45	0.00	1021.405	658	0.000	5
20080827 11:45	20.8	20.8	20.8	63	13.5	3	6	67	0.00	1021.304	669	0.000	6
20080827 11:50	21.0	21.0	21.0	62	13.4	2	8	22	0.00	1021.270	676	0.000	6
20080827 11:55	21.2	21.2	21.2	60	13.1	2	6	67	0.00	1021.270	680	0.000	6
20080827 12:00	21.3	21.3	21.3	60	13.2	2	6	22	0.00	1021.202	685	0.300	6
20080827 12:05	21.4	21.4	21.4	59	13.1	2	6	67	0.00	1021.101	692	0.000	6
20080827 12:10	21.6	21.6	21.6	59	13.2	3	8	90	0.00	1021.067	699	0.000	6
20080827 12:15	21.7	21.7	21.7	61	13.8	2	5	112	0.00	1020.999	703	0.000	6
20080827 12:20	21.8	21.8	21.8	59	13.5	2	6	45	0.00	1020.965	710	0.000	6
20080827 12:25	21.9	21.9	21.9	62	14.3	2	5	67	0.00	1020.897	711	0.000	6
20080827 12:30	21.9	21.9	21.9	61	14.0	3	8	45	0.00	1020.864	712	0.000	6
20080827 12:35	22.0	22.0	22.0	61	14.1	3	8	22	0.00	1020.796	721	0.000	6
20080827 12:40	22.2	22.2	22.2	59	13.8	2	6	315	0.00	1020.796	725	0.000	7
20080827 12:45	22.4	22.4	22.4	60	14.2	2	6	22	0.00	1020.796	708	0.000	6
20080827 12:50	22.4	22.4	22.4	58	13.7	2	6	22	0.00	1020.762	712	0.000	6
20080827 12:55	22.4	22.4	22.4	59	14.0	0	8	22	0.00	1020.728	718	0.000	6
20080827 13:00	22.4	22.4	22.4	57	13.4	3	8	22	0.00	1020.864	748	0.340	7
20080827 13:05	22.4	22.4	22.4	57	13.5	3	11	22	0.00	1020.796	754	0.000	7
20080827 13:10	22.5	22.5	22.5	63	15.1	2	6	22	0.00	1020.694	747	0.000	7
20080827 13:15	23.0	23.0	23.0	58	14.3	3	10	292	0.00	1020.525	746	0.000	7
20080827 13:20	23.4	23.4	23.4	55	13.8	2	5	315	0.00	1020.525	752	0.000	7
20080827 13:25	23.4	23.4	23.4	54	13.5	3	8	22	0.00	1020.457	752	0.000	7
20080827 13:30	23.1	23.1	23.1	56	13.8	2	8	22	0.00	1020.457	742	0.000	7
20080827 13:35	23.3	23.3	23.3	56	14.1	2	6	315	0.00	1020.356	745	0.000	7
20080827 13:40	23.6	23.6	23.6	56	14.3	2	8	292	0.00	1020.356	731	0.000	6
20080827 13:45	23.6	23.6	23.6	55	14.0	2	6	45	0.00	1020.220	725	0.000	6
20080827 13:50	23.5	23.5	23.5	53	13.4	3	8	45	0.00	1020.288	730	0.000	6
20080827 13:55	23.4	23.4	23.4	55	13.9	2	8	22	0.00	1020.322	730	0.000	6
20080827 14:00	23.7	23.7	23.7	52	13.2	2	6	292	0.00	1020.186	745	0.360	6
20080827 14:05	23.7	23.7	23.7	54	13.9	2	11	270	0.00	1020.119	733	0.000	6
20080827 14:10	23.8	23.8	23.8	51	13.1	2	10	0	0.00	1020.152	735	0.000	6
20080827 14:15	23.8	23.8	23.8	53	13.6	2	6	22	0.00	1020.186	733	0.000	6
20080827 14:20	23.9	23.9	25.4	52	13.5	3	11	292	0.00	1020.152	724	0.000	6
20080827 14:25	24.2	24.2	25.5	51	13.4	2	10	292	0.00	1020.051	713	0.000	6
20080827 14:30	24.3	24.3	25.5	49	12.9	6	11	270	0.00	1020.085	693	0.000	6
20080827 14:35	24.3	24.3	25.5	50	13.2	3	8	270	0.00	1020.119	694	0.000	6
20080827 14:40	24.4	24.4	25.6	50	13.3	3	10	292	0.00	1020.085	701	0.000	6
20080827 14:45	24.5	24.5	25.6	50	13.4	6	11	292	0.00	1020.051	691	0.000	6
20080827 14:50	24.4	24.4	25.6	49	13.0	3	10	292	0.00	1020.051	671	0.000	6
20080827 14:55	24.5	24.5	25.6	49	13.1	0	3	292	0.00	1019.949	678	0.000	6
20080827 15:00	24.6	24.6	25.6	50	13.4	0	2	292	0.00	1019.814	672	0.360	5
20080827 15:05	24.7	24.7	25.7	52	14.1	2	5	292	0.00	1019.780	661	0.000	5
20080827 15:10	24.6	24.6	25.6	49	13.1	3	10	270	0.00	1019.746	656	0.000	5
20080827 15:15	24.6	24.6	25.7	51	13.7	2	5	0	0.00	1019.678	650	0.000	5
20080827 15:20	24.3	24.3	25.5	50	13.2	3	11	45	0.00	1019.712	639	0.000	5
20080827 15:25	23.9	23.9	25.4	48	12.3	2	8	292	0.00	1019.814	631	0.000	5
20080827 15:30	24.0	24.0	25.4	51	13.2	0	2	292	0.00	1019.712	627	0.000	5
20080827 15:35	24.3	24.3	25.5	51	13.5	0	3	292	0.00	1019.543	617	0.000	4
20080827 15:40	24.7	24.7	25.7	49	13.3	3	11	270	0.00	1019.543	608	0.000	4
20080827 15:45	24.9	24.9	25.8	46	12.5	2	5	270	0.00	1019.475	599	0.000	4
20080827 15:50	25.1	25.1	25.9	50	13.9	2	10	292	0.00	1019.441	582	0.000	4
20080827 15:55	25.1	25.1	25.9	48	13.3	3	10	292	0.00	1019.374	572	0.000	4
20080827 16:00	24.8	24.8	25.8	49	13.3	2	8	22	0.00	1019.306	565	0.320	4
20080827 16:05	24.8	24.8	25.8	48	13.1	2	10	292	0.00	1019.306	558	0.000	4
20080827 16:10	24.9	24.9	25.8	47	12.8	3	8	292	0.00	1019.272	550	0.000	4
20080827 16:15	24.7	24.7	25.7	49	13.3	3	8	292	0.00	1019.238	535	0.000	3
20080827 16:20	24.3	24.3	25.5	47	12.3	3	8	0	0.00	1019.306	524	0.000	3
20080827 16:25	24.3	24.3	25.5	50	13.2	0	5	292	0.00	1019.272	510	0.000	3
20080827 16:30	24.4	24.4	25.6	51	13.6	2	5	337	0.00	1019.204	472	0.000	3
20080827 16:35	24.1	24.1	25.4	51	13.3	3	10	0	0.00	1019.238	479	0.000	3
20080827 16:40	24.1	24.1	25.4	51	13.3	3	11	292	0.00	1019.204	472	0.000	3
20080827 16:45	24.2	24.2	25.5	51	13.4	5	11	292	0.00	1019.137	452	0.000	2
20080827 16:50	24.3	24.3	25.5	51	13.5	3	10	292	0.00	1019.103	440	0.000	2
20080827 16:55	24.3	24.3	25.5	51	13.5	3	10	292	0.00	1019.103	224	0.000	2
20080827 17:00	24.2	24.2	25.5	51	13.4	2	6	292	0.00	1019.035	104	0.000	2
20080827 17:05	24.2	24.2	25.5	50	13.1	2	6	292	0.00	1019.035	93	0.240	2
20080827 17:10	24.0	24.0	25.4	51	13.2	2	6	45	0.00	1019.069	86	0.000	2
20080827 17:15	23.9	23.9	25.4	50	12.9	3	8	0	0.00	1019.001	191	0.000	2
20080827 17:20	23.8	23.8	23.8	51	13.1	2	5	0	0.00	1019.001	89	0.000	1
20080827 17:25	23.7	23.7	23.7	50	12.6	0	5	22	0.00	1019.035	107	0.000	1
20080827 17:30	23.6	23.6	23.6	51	12.9	2	3	22	0.00	1019.001	78	0.000	1
20080827 17:35	23.7	23.7	23.7	52	13.3	2	6	45	0.00	1019.001	165	0.000	1
20080827 17:40	23.8	23.8	23.8	51	13.0	5	8	45	0.00	1019.001	111	0.000	1
20080827 17:45	23.8	23.8	23.8	51	13.0	2	3	45	0.00	1018.933	176	0.000	1
20080827 17:50	23.9	23.9	25.4	51	13.2	0	5	337	0.00	1018.933	231	0.000	1
20080827 17:55	24.0	24.0	25.4	51	13.2	2	5	337	0.00	1018.899	275	0.000	1
20080827 18:00	23.9	23.9	25.3	52	13.4	2	3	45	0.00	1018.832	267	0.100	1
20080827 18:05	24.1	24.1	25.4	52	13.6	0	3	0	0.00	1018.764	252	0.000	1
20080827 18:10	24.2	24.2	25.5	50	13.1	0	2	0	0.00	1018.561	233	0.000	1
20080827 18:15	24.1	24.1	25.4	51	13.3	2	5	45	0.00	1018.730	217	0.000	1
20080827 18:20	23.9	23.9	25.4	52	13.5	2	5	45	0.00	1018.662	199	0.000	1
20080827 18:25	24.0	24.0	25.4	51	13.2	0	3	45	0.00	1018.662	188	0.000	0
20080827 18:30	23.7	23.7	23.7	52	13.3	3	5	45	0.00	1018.629	171	0.000	0
20080827 18:35	23.6	23.6	23.6	51	12.8	2	3	45	0.00	1018.595	158	0.000	0
20080827 18:40	23.4	23.4	23.4	52	13.0	0	2	45	0.00	1018.561	143	0.000	0
20080827 18:45	23.4	23.4	23.4	52	13.0	0	2	45	0.00	1018.561	125	0.000	0
20080827 18:50	23.3	23.3	23.3	52	12.9	0	3	45	0.00	1018.527	54	0.000	0
20080827 18:55	23.2	23.2	23.2	54	13.3	2	3	45	0.00	1018.493	41	0.000	0
20080827 19:00	23.0	23.0	23.0	54	13.2	0	3	45	0.00	1018.425	39	0.080	0
20080827 19:05	22.9	22.9	22.9	55	13.4	0	3	45	0.00	1018.425	37	0.000	0
20080827 19:10	22.7	22.7	22.7	56	13.5	0	2	45	0.00	1018.493	33	0.000	0
20080827 19:15	22.6	22.6	22.6	55	13.1	0	2	45	0.00	1018.459	31	0.000	0
20080827 19:20	22.4	22.4	22.4	56	13.2	0	2	45	0.00	1018.425	29	0.000	0
20080827 19:25	22.3	22.3	22.3	57	13.3	0	2	45	0.00	1018.392	27	0.000	0
20080827 19:30	22.2	22.2	22.2	57	13.2	0	0	45	0.00	1018.425	24	0.000	0
20080827 19:35	22.1	22.1	22.1	57	13.2	0	0	45	0.00	1018.425	21	0.000	0
20080827 19:40	22.0	22.0	22.0	58	13.3	0	0	45	0.00	1018.459	18	0.000	0
20080827 19:45	21.9	21.9	21.9	60	13.8	0	0	45	0.00	1018.425	14	0.000	0
20080827 19:50	21.8	21.8	21.8	62	14.2	0	0	45	0.00	1018.595	11	0.000	0
20080827 19:55	21.5	21.5	21.5	63	14.2	0	0	45	0.00	1018.662	8	0.000	0
20080827 20:00	21.3	21.3	21.3	65	14.4	0	0	45	0.00	1018.730	5	0.020	0
20080827 20:05	21.1	21.1	21.1	64	14.0	0	0	45	0.00	1018.527	0	0.000	0
20080827 20:10	20.8	20.8	20.8	65	14.0	0	2	45	0.00	1018.527	0	0.000	0
20080827 20:15	20.6	20.6	20.6	67	14.2	0	0	45	0.00	1018.561	0	0.000	0
20080827 20:20	20.3	20.3	20.3	67	14.0	0	0	45	0.00	1018.595	0	0.000	0
20080827 20:25	20.2	20.2	20.2	66	13.6	0	0	45	0.00	1018.696	0	0.000	0
20080827 20:30	20.0	20.0	20.0	67	13.7	0	0	45	0.00	1018.730	0	0.000	0
20080827 20:35	19.8	19.8	19.8	69	14.0	0	0	45	0.00	1018.798	0	0.000	0
20080827 20:40	19.6	19.6	19.6	69	13.8	0	0	45	0.00	1018.866	0	0.000	0
20080827 20:45	19.4	19.4	19.4	70	13.8	0	0	45	0.00	1019.001	0	0.000	0
20080827 20:50	19.3	19.3	19.3	70	13.7	0	0	45	0.00	1019.069	0	0.000	0
20080827 20:55	19.1	19.1	19.1	71	13.7	0	0	45	0.00	1019.035	0	0.000	0
20080827 21:00	18.9	18.9	18.9	72	13.8	0	0	45	0.00	1019.170	0	0.000	0
20080827 21:05	18.8	18.8	18.8	73	13.8	0	0	45	0.00	1019.069	0	0.000	0
20080827 21:10	18.7	18.7	18.7	74	13.9	0	0	45	0.00	1019.069	0	0.000	0
20080827 21:15	18.5	18.5	18.5	75	14.0	0	0	45	0.00	1019.103	0	0.000	0
20080827 21:20	18.4	18.4	18.4	74	13.7	0	0	45	0.00	1019.069	0	0.000	0
20080827 21:25	18.4	18.4	18.4	75	13.9	0	0	45	0.00	1019.137	0	0.000	0
20080827 21:30	18.3	18.3	18.3	75	13.8	0	0	45	0.00	1019.137	0	0.000	0
20080827 21:35	18.2	18.2	18.2	75	13.7	0	0	45	0.00	1019.137	0	0.000	0
20080827 21:40	18.2	18.2	18.2	75	13.7	0	0	45	0.00	1019.103	0	0.000	0
20080827 21:45	18.1	18.1	18.1	75	13.6	0	0	45	0.00	1019.137	0	0.000	0
20080827 21:50	18.0	18.0	18.0	75	13.5	0	0	45	0.00	1019.306	0	0.000	0
20080827 21:55	17.9	17.9	17.9	76	13.6	0	0	45	0.00	1019.306	0	0.000	0
20080827 22:00	17.8	17.8	17.8	77	13.7	0	0	45	0.00	1019.340	0	0.020	0
20080827 22:05	17.6	17.6	17.6	78	13.7	0	0	45	0.00	1019.103	0	0.000	0
20080827 22:10	17.5	17.5	17.5	79	13.8	0	0	45	0.00	1019.103	0	0.000	0
20080827 22:15	17.4	17.4	17.4	79	13.7	0	0	45	0.00	1019.238	0	0.000	0
20080827 22:20	17.3	17.3	17.3	80	13.8	0	0	45	0.00	1019.204	0	0.000	0
20080827 22:25	17.2	17.2	17.2	80	13.7	0	0	45	0.00	1019.238	0	0.000	0
20080827 22:30	17.2	17.2	17.2	80	13.7	0	0	45	0.00	1019.272	0	0.000	0
20080827 22:35	17.1	17.1	17.1	81	13.8	0	0	45	0.00	1019.272	0	0.000	0
20080827 22:40	17.1	17.1	17.1	81	13.8	0	0	45	0.00	1019.272	0	0.000	0
20080827 22:45	16.9	16.9	16.9	81	13.7	0	0	45	0.00	1019.306	0	0.000	0
20080827 22:50	16.9	16.9	16.9	81	13.6	0	0	45	0.00	1019.407	0	0.000	0
20080827 22:55	16.7	16.7	16.7	81	13.4	0	0	45	0.00	1019.509	0	0.000	0
20080827 23:00	16.6	16.6	16.6	82	13.5	2	6	157	0.00	1019.543	0	0.020	0
20080827 23:05	16.6	16.6	16.6	82	13.5	3	6	180	0.00	1019.306	0	0.000	0
20080827 23:10	16.5	16.5	16.5	82	13.4	2	5	180	0.00	1019.340	0	0.000	0
20080827 23:15	16.5	16.5	16.5	82	13.4	0	5	180	0.00	1019.340	0	0.000	0
20080827 23:20	16.4	16.4	16.4	82	13.4	2	5	180	0.00	1019.272	0	0.000	0
20080827 23:25	16.4	16.4	16.4	83	13.5	0	3	180	0.00	1019.238	0	0.000	0
20080827 23:30	16.3	16.3	16.3	83	13.4	0	2	180	0.00	1019.374	0	0.000	0
20080827 23:35	16.3	16.3	16.3	83	13.4	0	3	180	0.00	1019.374	0	0.000	0
20080827 23:40	16.3	16.3	16.3	83	13.4	2	5	180	0.00	1019.407	0	0.000	0
20080827 23:45	16.2	16.2	16.2	83	13.3	3	5	180	0.00	1019.407	0	0.000	0
20080827 23:50	16.1	16.1	16.1	83	13.2	2	6	180	0.00	1019.374	0	0.000	0
20080827 23:55	16.1	16.1	16.1	83	13.2	0	3	180	0.00	1019.306	0	0.000	0
20080827 24:00	16.0	16.0	16.0	84	13.3	2	3	180	0.00	1019.340	0	0.020	0



Please note the license to use and transfer of this data:
http://creativecommons.org/licenses/by-nc-sa/3.0/deed.en

Bitte beachten sie die Lizenz zur Verwertung und Weitergabe der Daten:
http://creativecommons.org/licenses/by-nc-sa/3.0/deed.de

zurück zur Übersicht der Archivdaten (Monats und Tagesdaten)

Cookies helfen bei der Bereitstellung von Inhalten. Durch die Nutzung dieser Seiten erklärst du dich damit einverstanden, dass Cookies auf deinem Rechner gespeichert werden. Weitere Information